Date String (YYYY-MM-DD hh:mm:ss) UTC,Instrument flags,Ambient pressure (hPa),Sample flow (lpm),Bypass flow (lpm),Sample temperature (°C),Ambient temperature (°C),ASC tube jacket temperature (°C),LED temperature (°C),Box temperature (°C),Sample RH (%),Span deviation,Mass concentration (μg/m³),Mass concentration (μg/m³),Mass concentration (μg/m³)
DateTimeUTC,F1_M11,P_M11,Q1_M11,Q2_M11,T1_M11,T2_M11,T3_M11,T4_M11,T5_M11,U1_M11,ZSPAN_M11,X0_M11,X2_M11,X1_M11
2022-11-05 19:00:00,,0810.3,5.00,0.00,22.8,21.7,00.0,31.6,24.7,14.4,0000.0,0002.50,0000.37,0000.11
2022-11-05 19:01:00,,0810.3,5.00,0.00,22.8,21.8,00.0,31.6,24.8,14.6,0000.0,0002.50,0000.38,0000.12
2022-11-05 19:02:00,,0810.3,5.00,0.00,22.8,21.8,00.0,31.6,24.8,14.8,0000.0,0002.33,0000.35,0000.12
2022-11-05 19:03:00,,0810.4,4.99,0.00,22.9,21.8,00.0,31.6,24.8,14.5,0000.0,0002.08,0000.32,0000.12
2022-11-05 19:04:00,,0810.4,5.00,0.00,22.9,21.9,00.0,31.6,24.8,14.3,0000.0,0001.95,0000.36,0000.12
2022-11-05 19:05:00,,0810.4,5.00,0.00,22.9,21.9,00.0,31.6,24.8,14.2,0000.0,0002.22,0000.38,0000.12
2022-11-05 19:06:00,,0810.3,4.99,0.00,22.9,21.9,00.0,31.7,24.9,14.1,0000.0,0002.68,0000.39,0000.12
2022-11-05 19:07:00,,0810.2,5.00,0.00,22.9,21.9,00.0,31.7,24.9,14.3,0000.0,0002.67,0000.37,0000.12
2022-11-05 19:08:00,,0810.1,5.00,0.00,23.0,22.0,00.0,31.7,24.9,14.1,0000.0,0003.05,0000.37,0000.11
2022-11-05 19:09:00,,0810.2,5.00,0.00,23.0,22.0,00.0,31.7,24.9,14.2,0000.0,0003.48,0000.40,0000.11
2022-11-05 19:10:00,,0810.0,5.00,0.00,23.0,22.0,00.0,31.7,24.9,14.3,0000.0,0004.29,0000.37,0000.11
2022-11-05 19:11:00,,0810.1,5.00,0.00,23.0,22.0,00.0,31.7,25.0,14.1,0000.0,0005.36,0000.44,0000.12
2022-11-05 19:12:00,,0810.1,5.01,0.00,23.0,22.0,00.0,31.8,25.0,13.9,0000.0,0007.58,0000.58,0000.13
2022-11-05 19:13:00,,0810.1,5.00,0.00,23.1,22.0,00.0,31.8,25.0,13.7,0000.0,0007.70,0000.60,0000.12
2022-11-05 19:14:00,,0809.9,5.00,0.00,23.1,22.1,00.0,31.8,25.0,13.6,0000.0,0007.78,0000.66,0000.12
2022-11-05 19:15:00,,0810.1,5.00,0.00,23.1,22.1,00.0,31.8,25.0,13.6,0000.0,0007.83,0000.68,0000.12
2022-11-05 19:16:00,,0810.1,5.00,0.00,23.1,22.2,00.0,31.8,25.1,13.8,0000.0,0007.88,0000.74,0000.13
2022-11-05 19:17:00,,0810.1,5.00,0.00,23.2,22.2,00.0,31.9,25.1,14.1,0000.0,0007.70,0000.77,0000.13
2022-11-05 19:18:00,,0810.1,5.00,0.00,23.2,22.2,00.0,31.9,25.1,13.8,0000.0,0007.73,0000.79,0000.13
2022-11-05 19:19:00,,0810.1,5.00,0.00,23.2,22.3,00.0,31.9,25.2,14.0,0000.0,0007.27,0000.82,0000.13
2022-11-05 19:20:00,,0810.2,5.00,0.00,23.2,22.3,00.0,31.9,25.2,14.2,0000.0,0006.32,0000.80,0000.12
2022-11-05 19:21:00,,0810.0,5.00,0.00,23.3,22.3,00.0,31.9,25.2,13.7,0000.0,0006.79,0000.80,0000.12
2022-11-05 19:22:00,,0810.0,5.00,0.00,23.3,22.4,00.0,31.9,25.2,13.8,0000.0,0006.92,0000.73,0000.11
2022-11-05 19:23:00,,0810.2,5.00,0.00,23.3,22.4,00.0,32.0,25.3,13.8,0000.0,0004.71,0000.62,0000.10
2022-11-05 19:24:00,,0810.2,5.00,0.00,23.4,22.4,00.0,32.0,25.3,13.5,0000.0,0004.67,0000.63,0000.11
2022-11-05 19:25:00,,0810.2,5.00,0.00,23.4,22.5,00.0,32.0,25.3,13.7,0000.0,0004.78,0000.58,0000.11
2022-11-05 19:26:00,,0810.1,5.00,0.00,23.4,22.5,00.0,32.0,25.4,13.6,0000.0,0004.95,0000.51,0000.11
2022-11-05 19:27:00,,0810.1,5.00,0.00,23.4,22.5,00.0,32.1,25.4,13.7,0000.0,0004.66,0000.45,0000.10
2022-11-05 19:28:00,,0810.1,5.00,0.00,23.5,22.5,00.0,32.1,25.4,13.4,0000.0,0004.54,0000.41,0000.10
2022-11-05 19:29:00,,0810.1,5.00,0.00,23.5,22.5,00.0,32.1,25.5,13.6,0000.0,0004.77,0000.40,0000.10
2022-11-05 19:30:00,,0810.1,5.00,0.00,23.5,22.6,00.0,32.1,25.5,13.5,0000.0,0005.63,0000.37,0000.10
2022-11-05 19:31:00,,0809.9,5.00,0.00,23.5,22.6,00.0,32.2,25.5,13.2,0000.0,0006.19,0000.37,0000.10
2022-11-05 19:32:00,,0809.9,5.01,0.00,23.6,22.6,00.0,32.2,25.5,13.0,0000.0,0004.64,0000.35,0000.10
2022-11-05 19:33:00,,0810.0,5.01,0.00,23.6,22.6,00.0,32.2,25.5,13.1,0000.0,0004.85,0000.30,0000.11
2022-11-05 19:34:00,,0809.9,5.00,0.00,23.6,22.7,00.0,32.2,25.5,13.6,0000.0,0004.96,0000.32,0000.10
2022-11-05 19:35:00,,0809.9,4.99,0.00,23.6,22.7,00.0,32.3,25.6,13.4,0000.0,0005.10,0000.32,0000.10
2022-11-05 19:36:00,,0809.6,5.01,0.00,23.7,22.7,00.0,32.3,25.6,12.8,0000.0,0004.95,0000.34,0000.10
2022-11-05 19:37:00,,0809.8,4.99,0.00,23.7,22.7,00.0,32.3,25.6,13.0,0000.0,0005.21,0000.35,0000.09
2022-11-05 19:38:00,,0809.7,5.01,0.00,23.7,22.7,00.0,32.3,25.6,12.9,0000.0,0005.22,0000.34,0000.09
2022-11-05 19:39:00,,0809.9,5.01,0.00,23.7,22.7,00.0,32.4,25.6,12.8,0000.0,0005.24,0000.35,0000.09
2022-11-05 19:40:00,,0809.9,4.98,0.00,23.7,22.7,00.0,32.4,25.6,13.0,0000.0,0005.16,0000.34,0000.09
2022-11-05 19:41:00,,0809.8,5.01,0.00,23.7,22.7,00.0,32.4,25.6,12.9,0000.0,0003.91,0000.32,0000.09
2022-11-05 19:42:00,,0809.5,5.01,0.00,23.7,22.7,00.0,32.4,25.6,13.0,0000.0,0003.24,0000.31,0000.09
2022-11-05 19:43:00,,0809.7,5.01,0.00,23.8,22.7,00.0,32.5,25.7,13.1,0000.0,0003.33,0000.33,0000.09
2022-11-05 19:44:00,,0809.9,5.00,0.00,23.8,22.8,00.0,32.5,25.7,13.1,0000.0,0002.11,0000.35,0000.09
2022-11-05 19:45:00,,0809.9,4.99,0.00,23.8,22.8,00.0,32.5,25.7,13.1,0000.0,0001.76,0000.33,0000.09
2022-11-05 19:46:00,,0810.0,5.00,0.00,23.8,22.8,00.0,32.5,25.7,13.2,0000.0,0001.67,0000.32,0000.09
2022-11-05 19:47:00,,0810.0,4.99,0.00,23.8,22.8,00.0,32.5,25.7,12.8,0000.0,0001.57,0000.28,0000.08
2022-11-05 19:48:00,,0810.0,5.00,0.00,23.8,22.8,00.0,32.6,25.7,13.0,0000.0,0000.93,0000.28,0000.08
2022-11-05 19:49:00,,0809.8,5.00,0.00,23.9,22.8,00.0,32.6,25.8,13.0,0000.0,0001.11,0000.32,0000.08
2022-11-05 19:50:00,,0809.9,5.00,0.00,23.9,22.8,00.0,32.6,25.8,13.0,0000.0,0001.17,0000.35,0000.09
2022-11-05 19:51:00,,0810.0,5.00,0.00,23.9,22.9,00.0,32.6,25.8,13.1,0000.0,0001.17,0000.36,0000.09
2022-11-05 19:52:00,,0810.1,5.00,0.00,23.9,22.9,00.0,32.6,25.9,13.3,0000.0,0001.15,0000.35,0000.09
2022-11-05 19:53:00,,0810.0,5.00,0.00,23.9,22.9,00.0,32.6,25.9,13.1,0000.0,0001.15,0000.36,0000.09
2022-11-05 19:54:00,,0810.0,5.00,0.00,23.9,23.0,00.0,32.7,25.9,13.1,0000.0,0001.10,0000.35,0000.09
2022-11-05 19:55:00,,0810.0,5.00,0.00,24.0,23.0,00.0,32.7,25.9,12.8,0000.0,0001.04,0000.33,0000.09
2022-11-05 19:56:00,,0809.9,5.01,0.00,24.0,23.0,00.0,32.7,26.0,12.9,0000.0,0001.05,0000.33,0000.08
2022-11-05 19:57:00,,0810.0,5.00,0.00,24.0,23.0,00.0,32.7,26.0,13.3,0000.0,0001.08,0000.31,0000.08
2022-11-05 19:58:00,,0810.1,4.99,0.00,24.0,23.0,00.0,32.7,26.0,13.0,0000.0,0001.05,0000.32,0000.08
2022-11-05 19:59:00,,0810.2,4.99,0.00,24.1,23.1,00.0,32.7,26.0,13.1,0000.0,0001.09,0000.34,0000.08
